Grand Island, NE

10:52 PM CST on November 21, 2019 (GMT -0600)
Central Nebraska Regional

Weather History for KGRI - October, 2019

Change the Weather History Date:

Tuesday, October 22, 2019

  Actual Average Record
Temperature  
Mean Temperature 48 °F 50 °F  
Max Temperature 62 °F 62 °F 91 °F (1899)
Min Temperature 33 °F 37 °F 22 °F (1898)
Degree Days  
Heating Degree Days 17 15  
Month to date heating degree days 297 252  
Since 1 July heating degree days 309 367  
Cooling Degree Days 0 0  
Month to date cooling degree days 0 10  
Year to date cooling degree days 1153 1033  
Moisture  
Dew Point 28 °F    
Average Humidity 50    
Maximum Humidity 75    
Minimum Humidity 25    
Precipitation  
Precipitation T in 0.05 in 1.68 in (2008)
Month to date precipitation 1.23 1.42  
Year to date precipitation 36.18 24.42  
Snow  
Snow 0.00 in 0.00 in 0.60 in (2009)
Month to date snowfall T 0.5  
Since 1 July snowfall T 0.6  
Since 1 September snowfall T 0.6  
Snow Depth 0.00 in    
Sea Level Pressure  
Sea Level Pressure 29.98 in    
Wind  
Wind Speed 12 mph (West)    
Max Wind Speed 26 mph    
Max Gust Speed 41 mph    
Visibility 10 miles    
Events      
T = Trace of Precipitation, MM = Missing Value Source: NWS Daily Summary

Daily Weather History Graph

Daily Weather History Graph

Search for Another Location

Airport or City:

Astronomy

Oct. 22, 2019 Rise Set
Actual Time 7:52 AM CDT 6:42 PM CDT
Civil Twilight 7:24 AM CDT 7:10 PM CDT
Nautical Twilight 6:52 AM CDT 7:42 PM CDT
Astronomical Twilight 6:20 AM CDT 8:14 PM CDT
Moon 12:59 AM CDT 3:56 PM CDT
Length of Visible Light 11h 46m
Length of Day
10h 50m
Last Quarter, 37% of the Moon is Illuminated
Oct 22
Last Quarter
Oct 27
New
Nov 4
First Quarter
Nov 12
Full
Nov 19
Last Quarter

Hourly Weather History & Observations

Time (CDT) Temp. Windchill Dew Point Humidity Pressure Visibility Wind Dir Wind Speed Gust Speed Precip Events Conditions
12:53 AM 42.1 °F 34.5 °F 27.0 °F 55% 29.96 in 10.0 mi WNW 15.0 mph - N/A   Clear
1:53 AM 39.0 °F 31.4 °F 27.0 °F 62% 29.97 in 10.0 mi West 12.7 mph - N/A   Clear
2:53 AM 39.0 °F 31.8 °F 27.0 °F 62% 29.98 in 10.0 mi West 11.5 mph - N/A   Clear
3:53 AM 37.0 °F 29.3 °F 27.0 °F 67% 30.00 in 10.0 mi West 11.5 mph - N/A   Clear
4:53 AM 36.0 °F 28.0 °F 27.0 °F 70% 30.01 in 10.0 mi West 11.5 mph - N/A   Clear
5:53 AM 35.1 °F 25.9 °F 27.0 °F 72% 30.03 in 10.0 mi West 13.8 mph - N/A   Clear
6:53 AM 33.1 °F 25.5 °F 27.0 °F 78% 30.04 in 10.0 mi West 9.2 mph - N/A   Clear
7:53 AM 35.1 °F 26.9 °F 28.0 °F 76% 30.04 in 10.0 mi West 11.5 mph - N/A   Clear
8:53 AM 37.9 °F 30.0 °F 28.9 °F 70% 30.06 in 10.0 mi West 12.7 mph - N/A   Clear
9:53 AM 45.0 °F 38.2 °F 30.9 °F 58% 30.08 in 10.0 mi West 15.0 mph - N/A   Clear
10:53 AM 46.9 °F - 28.9 °F 50% 30.07 in 10.0 mi WNW 17.3 mph - N/A   Mostly Cloudy
11:53 AM 52.0 °F - 30.9 °F 45% 30.05 in 10.0 mi WNW 12.7 mph - N/A   Overcast
1:53 PM 57.9 °F - 28.9 °F 33% 29.99 in 10.0 mi NW 20.7 mph 29.9 mph N/A   Partly Cloudy
2:53 PM 61.0 °F - 27.0 °F 27% 29.96 in 10.0 mi WNW 19.6 mph 28.8 mph N/A   Mostly Cloudy
3:53 PM 61.0 °F - 24.1 °F 24% 29.95 in 10.0 mi WNW 18.4 mph 28.8 mph N/A   Clear
4:53 PM 61.0 °F - 24.1 °F 24% 29.94 in 10.0 mi WNW 17.3 mph 29.9 mph N/A   Partly Cloudy
5:53 PM 59.0 °F - 24.1 °F 26% 29.94 in 10.0 mi NW 15.0 mph - N/A   Clear
6:53 PM 53.1 °F - 25.0 °F 34% 29.93 in 10.0 mi West 4.6 mph - N/A   Clear
7:53 PM 46.9 °F - 28.9 °F 50% 29.94 in 10.0 mi South 3.5 mph - N/A   Clear
8:53 PM 46.9 °F - 30.0 °F 52% 29.93 in 10.0 mi SSW 5.8 mph - N/A   Partly Cloudy
9:53 PM 50.0 °F - 30.9 °F 48% 29.91 in 10.0 mi SSW 4.6 mph - N/A   Overcast
10:53 PM 50.0 °F - 30.9 °F 48% 29.90 in 10.0 mi WSW 3.5 mph - N/A   Mostly Cloudy
11:53 PM 53.1 °F - 32.0 °F 45% 29.89 in 10.0 mi WSW 11.5 mph - N/A   Overcast